Regional Weather Roundup
Issued by NWS Jackson, KY

Home | Current Version | Previous Version | Graphics & Text | Print | Product List | Glossary On
Versions: 1 2 3 4 5 6 7 8 9 10 11 12 13 14 15 16 17 18 19 20 21 22 23 24 25 26 27 28 29 30 31 32 33 34 35 36 37 38 39 40 41 42 43 44 45 46 47 48 49 50
000
ASUS43 KJKL 022010
RWRJKL

EAST KENTUCKY HOURLY WEATHER ROUNDUP
NATIONAL WEATHER SERVICE JACKSON KY
400 PM EDT SUN AUG 02 2015

NOTE: "FAIR" INDICATES FEW OR NO CLOUDS BELOW 12,000 FEET WITH
NO SIGNIFICANT WEATHER AND/OR OBSTRUCTIONS TO VISIBILITY.

* THESE REPORTS ARE NOT UNDER NWS QUALITY CONTROL AND MAY NOT
  REPORT WEATHER SUCH AS PRECIPITATION AND FOG.

KYZ079-080-083-085-087-088-110-112-115-119-120-022100
...EASTERN KENTUCKY...

CITY           SKY/WX    TMP DP  RH WIND       PRES   REMARKS
JACKSON        SUNNY     83  59  44 CALM      30.01F
LONDON         SUNNY     86  57  37 NE7       29.99F
SOMERSET*      SUNNY     84  57  39 E5        29.99S
MONTICELLO*    SUNNY     88  60  38 CALM      30.00F
MIDDLESBORO*   SUNNY     87  59  39 SW5       29.99F
HAZARD APT*    CLEAR     84  57  39 CALM      30.00F
BLACK MTN*       N/A     70  55  60 CALM        N/A
PIKEVILLE APT* SUNNY     82  57  42 CALM      30.02F
BIG SANDY*     CLEAR     85  59  41 S6        30.01F
MOREHEAD APT*  CLEAR     84  57  39 VRB3      30.01F
$$

KYZ035-036-041-042-044-050-067-078-099-022100
...CENTRAL KENTUCKY...

CITY           SKY/WX    TMP DP  RH WIND       PRES   REMARKS
MT STERLING*   MOSUNNY   84  61  45 W3        30.01S
FLEMING/MASON* SUNNY    N/A N/A N/A W8        29.99F
DANVILLE*      SUNNY     82  59  44 CALM      30.00F
RICHMOND*      SUNNY     84  55  37 SW6       29.99S
LEXINGTON      SUNNY     86  56  35 VRB3      29.98F
FRANKFORT      SUNNY     87  58  37 VRB5      29.96F
$$

KYZ091>093-OHZ055-061-077-WVZ005-015-034-035-042-022100
...SOUTHERN OHIO/WEST VIRGINIA...

CITY           SKY/WX    TMP DP  RH WIND       PRES   REMARKS
COVINGTON      MOSUNNY   86  62  44 VRB3      29.96F
COLUMBUS       MOSUNNY   87  59  38 SW12      29.92F
DAYTON         MOSUNNY   85  61  44 SW18      29.94F
WILMINGTON     SUNNY     84  62  47 S13       29.96F
HUNTINGTON     MOSUNNY   86  59  39 S7        29.97F
CHARLESTON     MOSUNNY   82  56  40 CALM      29.99F
PINEVILLE*     SUNNY     83  57  40 MISG      30.08F
BECKLEY        MOSUNNY   76  52  43 SE3       30.08S
BLUEFIELD      SUNNY     79  50  36 E6        30.10F
$$

VAZ002-007-008-TNZ017-027-036-066-071-022100
...SOUTHWEST VIRGINIA/EAST TENNESSEE...

CITY           SKY/WX    TMP DP  RH WIND       PRES   REMARKS
WISE*          SUNNY     82  48  30 E3        30.08F
ABINGDON*      MOSUNNY   84  44  24 CALM      30.04F
BRISTOL        MOSUNNY   87  50  27 VRB3      29.99F
KNOXVILLE      MOSUNNY   89  59  36 W3        29.95F
OAK RIDGE      PTSUNNY   89  59  36 E7        29.97F
CROSSVILLE     SUNNY     84  53  34 W6        30.02F
NASHVILLE      PTSUNNY   88  58  36 E3        29.95F
$$

...KEY TO REMARKS...
VSB - VISIBILITY IN MILES
WCI - WIND CHILL INDEX
HX  - HEAT INDEX

$$



USA.gov is the U.S. government's official web portal to all federal, state and local government web resources and services.